DMSP 5D-2 F11 DEB, 29078

Orbit data source: Space-Track

DMSP 5D-2 F11 DEB, 29078 is space debris in SSO originally from a launch on Thu, 28 Nov 1991 UTC launched from the Air Force Western Test Range (AFWTR). Debris objects in space refer to the collection of defunct objects orbiting the Earth. Examples of debris include non-operational satellites, rocket bodies, and fragments generated from explosions, collisions, or faulty payload assembly.

Loading next visibility...
Identifier
29078, 1991-082BZ
Orbit
SSO
Country
Flag of USUS
Related business
Manufacturer
Unknown
Mission
Spacecraft
Bus & Motor
Unknown
Mass
Unknown
Launch date (UTC)
1991-11-28 (35 years ago)
Launch vehicle
Unknown
Launch site
Air Force Western Test Range (AFWTR)
Object type
Payload
Rocket body
Debris
Shape & HBR
Unknown shape, 0.1 m
Radar Cross Section
Small (<0.1 m²)

Expand to show TLE details & history
Last TLE update: 2 days ago

TLE from 2 days ago
0 DMSP 5D-2 F11 DEB
1 29078U 91082BZ  26207.20644372  .00005222  00000-0  13895-2 0  9990
2 29078  98.6741 300.1999 0015661 220.9073 139.0945 14.48899915626469
Epoch: 2026-07-26T04:57Z
TLE epoch observation values (Epoch: 2026-07-26T04:57:16.737Z)
Latitude
-0.00005°
Longitude
-78.02753°
Altitude
740.621 km
Speed
7.48 km/s
True Right ascension
20h 00m 47s
True Declination
0° 00' 00"
Sunlit
Object was in full shadow at epoch
Visualization orbit readout
Latitude
Unknown
Longitude
Unknown
Altitude
Unknown
Speed
Unknown
Apparent Right ascension
Unknown
Apparent Declination
Unknown
Sunlit
N/A
Visualization observer readout
Local Sidereal Time
15:14:25
Azimuth
Unknown
Elevation
Unknown
Doppler factor
Unknown
Orbital elements
Apogee altitude
737.488 km
Perigee altitude
715.236 km
Semi-major axis
7,104.499 km
Eccentricity
0.00157
Inclination
98.6741°
RAAN
300.1999°
Arg. of periapsis
220.9073°
True anomaly
139.21184°
Mean anomaly
139.0945°
Eccentric anomaly
139.15319°
Mean motion
3.62446 °/min
Orbital period
99.33 mins
BSTAR
0.0013895
Loading maneuver chart data...
Computing Atmospheric mass density...

Documentation

Showing up to 5 results
|